Wind_Speed
3 3 3 5 9 12 12 11 13 11 5 4 4 5 8 9 10 10 12 10 4 6 8 12 20 19 16 15 12 13 12 10 16 19 19 15 12 12 14 17 17 16 17 16 20 24 23 23 24 24 26 26 27 29 32 34 36 39 40 40 42 42 42 41 42 42 42 42 40 39 41 45 46 45 45 47 48 49 48 48 47 47 46 45 44 43
3 5 7 10 13 11 7 4 6 6 6 5 5 7 8 7 12 13 13 14 4 3 7 8 18 20 15 15 13 12 14 15 17 17 20 20 15 13 14 19 19 15 13 12 14 18 20 21 22 22 23 23 24 27 31 34 37 39 40 41 42 41 41 44 45 45 45 47 46 44 46 46 44 44 46 47 49 49 48 47 47 47 46 45 45 43
2 4 11 14 11 3 3 2 2 5 6 7 4 5 7 5 11 12 10 12 5 2 6 7 15 17 12 15 17 16 17 18 15 12 16 20 18 16 16 17 16 15 14 11 12 14 15 17 18 18 19 22 24 26 29 33 35 36 39 41 40 39 42 44 45 45 45 45 44 41 39 38 36 39 43 43 44 46 45 45 45 46 46 45 44 43
3 7 12 12 8 4 4 3 3 5 5 6 4 4 8 6 7 8 5 6 4 3 6 10 15 14 11 15 17 17 15 13 13 13 14 17 19 20 17 13 12 15 15 14 13 13 13 11 10 12 16 19 22 24 27 30 33 35 39 41 40 41 43 44 44 44 43 39 37 34 31 31 32 33 36 36 37 41 43 42 43 44 45 45 44 43
7 8 5 4 5 8 7 6 5 7 6 6 6 6 10 11 10 10 7 6 6 5 6 8 13 11 6 9 10 7 6 7 11 13 14 17 20 17 13 13 14 13 13 14 14 15 13 8 5 10 14 16 20 24 27 30 33 37 40 41 41 41 42 43 44 44 40 36 35 31 26 25 27 26 29 32 34 37 39 41 44 45 45 45 44 44
9 7 4 5 4 7 6 6 7 9 7 4 6 12 16 14 12 12 10 7 6 5 4 5 8 8 2 3 6 5 3 6 8 11 17 16 14 10 10 15 13 9 9 11 13 15 13 7 5 8 11 14 20 25 29 31 34 36 37 38 38 39 40 42 43 43 41 39 38 36 31 29 29 27 31 38 40 40 43 46 48 47 47 47 46 45
5 3 4 5 5 7 6 7 8 9 5 6 6 12 14 12 10 10 8 4 1 4 2 4 1 9 5 3 7 7 5 9 11 13 15 10 8 9 10 13 11 8 9 9 11 13 10 7 6 6 10 16 22 26 27 28 31 32 32 33 36 38 39 40 41 42 42 41 41 41 40 37 36 34 37 42 43 44 47 47 47 48 48 48 47 47
5 2 4 4 5 6 6 7 7 10 6 6 5 6 8 8 7 6 3 3 4 3 3 2 4 6 12 5 6 7 7 11 15 14 11 7 9 12 12 12 10 10 11 9 10 11 8 7 6 8 13 17 22 24 23 24 27 29 29 31 34 36 37 38 39 42 44 43 42 42 40 38 38 37 36 37 38 41 43 41 42 45 46 47 47 47
3 5 6 6 5 5 7 6 7 12 6 7 4 6 5 5 5 5 5 4 1 4 4 3 5 2 12 6 4 1 5 9 15 14 11 9 9 11 12 12 12 11 11 9 9 9 8 7 8 11 15 17 20 21 19 20 22 25 26 28 31 33 34 36 38 41 43 43 42 41 39 36 36 33 30 30 33 35 37 38 39 41 42 44 45 45
1 4 7 8 6 6 8 5 9 13 7 5 6 6 4 3 2 4 4 3 2 4 4 4 5 2 11 6 4 2 3 7 11 9 8 8 8 9 10 11 12 10 8 8 8 8 7 8 11 13 15 16 16 16 15 15 16 20 23 25 28 30 32 34 36 39 41 40 39 40 39 37 34 31 27 27 30 32 34 35 37 38 40 42 43 44
2 1 2 5 5 5 5 2 5 9 5 2 5 4 5 4 4 3 1 3 3 5 5 8 10 5 7 4 4 3 5 5 7 7 6 6 7 8 9 10 10 7 7 9 9 10 9 10 12 14 15 14 12 10 10 11 14 17 21 24 26 29 30 33 35 38 40 40 40 40 41 39 35 32 30 29 31 33 34 35 36 38 40 41 43 44
1 1 2 4 3 3 4 1 2 0 3 4 4 3 4 4 3 4 4 3 2 6 5 8 10 7 6 5 0 4 6 4 6 7 7 7 8 9 9 10 8 6 7 8 8 10 11 11 11 11 12 12 10 7 7 10 13 17 20 23 26 28 30 32 35 38 40 41 41 41 40 40 38 36 36 35 36 37 38 38 37 37 38 39 41 42
2 5 4 4 3 5 5 1 3 4 4 4 3 3 2 4 3 3 3 1 3 7 5 6 7 4 10 10 5 9 13 10 10 9 8 10 10 10 10 10 8 7 9 9 7 8 8 10 9 8 9 10 9 7 6 8 12 16 19 22 25 28 30 33 35 37 39 41 42 41 40 40 39 38 40 40 39 40 41 40 39 39 39 39 40 42
4 5 2 1 3 4 8 5 3 2 3 5 5 4 3 2 1 3 4 2 4 6 3 4 5 3 9 9 7 12 15 12 8 8 10 10 10 10 9 9 8 9 9 8 8 7 6 8 8 7 7 7 6 6 6 7 10 13 17 20 23 25 28 31 34 37 39 40 41 40 40 39 38 39 40 40 40 40 41 41 41 42 43 43 45 47
4 7 4 5 3 4 9 8 5 5 4 5 5 5 4 4 4 4 4 4 6 4 2 1 4 4 6 4 6 11 10 8 6 8 9 8 8 8 8 8 8 8 8 7 8 7 6 7 8 8 9 7 4 4 5 7 9 12 14 18 20 22 25 28 31 34 37 39 40 39 39 38 38 38 39 40 40 41 42 42 42 43 44 45 47 48
4 8 6 3 1 7 8 5 4 6 1 2 3 4 2 5 4 3 4 5 5 4 2 2 3 5 5 8 10 10 10 9 10 10 9 8 7 6 6 7 6 6 7 7 7 7 8 7 7 9 11 8 2 1 5 8 10 14 15 18 21 22 25 27 30 33 35 37 38 39 40 39 38 37 37 37 38 38 40 42 43 44 45 45 45 45
3 6 4 1 1 6 7 3 3 4 2 1 3 3 5 4 4 2 5 4 3 6 6 5 7 6 5 10 12 9 8 8 8 9 8 8 6 5 5 6 6 7 7 7 7 8 9 8 8 9 10 8 3 2 6 9 12 16 18 19 22 24 26 28 31 33 34 35 36 38 39 40 39 39 38 37 36 37 38 40 42 43 43 44 43 42
3 6 4 4 3 5 4 2 1 2 4 5 3 5 3 1 2 1 2 2 3 7 5 6 11 11 6 9 9 9 11 9 6 7 7 7 6 5 5 6 6 7 7 7 8 7 8 9 11 14 14 12 9 6 6 8 12 16 18 20 22 25 27 30 32 34 35 35 36 37 38 39 41 41 41 39 37 36 36 38 40 41 41 41 40 40
1 4 6 3 5 3 1 1 3 3 1 3 3 2 1 1 3 1 1 1 5 8 5 6 11 10 6 9 10 14 20 15 6 6 9 9 8 6 5 7 8 8 9 10 10 11 11 11 14 20 24 24 21 17 13 11 11 13 16 18 20 23 25 27 29 31 33 35 36 37 37 39 40 41 41 40 39 37 38 39 40 39 40 40 39 40
1 3 5 1 3 1 3 2 4 3 2 3 1 2 1 3 4 3 2 2 4 8 8 7 9 7 5 8 10 15 22 17 5 4 8 9 7 6 5 7 10 11 12 13 13 14 14 14 17 23 26 27 26 23 21 18 16 16 17 18 20 22 24 25 26 29 32 35 36 35 35 37 39 39 38 38 38 38 39 40 39 39 39 39 40 41
2 3 5 2 1 1 1 4 6 5 3 2 1 2 2 2 2 3 3 3 5 8 8 9 9 7 4 5 10 15 18 14 4 4 6 6 7 8 8 10 12 12 12 13 13 13 14 14 19 26 29 29 30 31 29 26 23 22 22 22 23 24 25 26 28 29 31 33 33 34 36 37 37 37 37 37 37 38 39 39 40 40 39 39 40 41
1 3 5 5 5 5 7 7 7 8 6 5 5 5 6 6 4 5 7 5 5 6 7 9 10 7 3 3 9 12 14 13 6 3 5 8 11 11 12 13 12 12 12 12 11 12 13 13 18 25 30 32 34 35 35 33 31 30 29 28 27 25 26 28 29 29 29 30 30 33 35 34 34 35 36 37 37 38 38 39 40 40 39 40 40 40
2 2 3 6 7 8 11 8 5 6 4 2 4 4 5 5 4 7 9 6 6 7 6 9 10 6 3 6 8 8 12 13 9 13 12 11 11 12 13 13 13 12 12 11 11 11 10 12 17 22 25 27 29 31 33 34 33 33 34 34 32 28 27 28 28 28 29 30 32 33 33 33 34 34 35 36 38 40 40 40 41 41 41 41 40 40
2 2 3 6 6 6 9 9 4 2 5 1 3 3 4 3 4 7 6 3 4 6 7 9 10 5 2 4 6 7 10 9 11 15 12 10 11 12 12 12 12 12 12 12 12 10 10 13 17 19 21 23 25 26 29 30 31 32 33 34 34 32 31 29 28 28 30 31 34 34 34 35 36 35 35 38 40 42 43 43 42 42 43 42 42 42
1 2 4 4 5 4 4 6 5 2 2 2 3 4 5 6 6 7 5 3 4 6 10 11 9 5 2 4 6 8 10 11 13 12 10 10 10 10 10 11 11 12 14 15 15 15 15 15 15 16 19 22 23 25 25 26 28 30 30 32 32 33 33 33 31 30 29 31 33 33 34 36 36 36 38 40 41 43 44 43 42 42 42 42 42 42
2 3 4 4 6 7 6 5 4 3 2 1 2 4 4 6 8 6 4 5 6 7 10 10 9 7 6 7 8 9 13 14 13 12 12 11 11 11 10 11 12 12 14 16 16 16 16 16 15 16 21 23 25 26 26 25 26 27 28 30 31 32 33 34 34 33 31 31 31 32 33 35 35 37 40 42 44 44 42 41 41 41 41 42 42 42
1 2 5 8 10 9 9 8 5 5 6 6 7 8 7 7 8 6 4 6 9 9 10 11 11 11 10 9 8 9 11 11 11 12 12 11 11 12 11 11 11 11 12 13 13 14 15 15 15 17 21 25 27 28 29 28 27 27 27 28 31 33 33 34 35 34 32 31 31 32 33 34 35 38 41 43 44 44 41 40 40 41 42 43 43 43
1 3 6 10 12 10 10 12 11 10 12 12 14 14 13 12 10 9 10 12 11 8 8 10 12 14 13 6 6 9 8 8 8 9 9 9 9 9 10 12 13 13 13 13 13 14 14 14 14 15 19 24 27 29 30 30 31 31 30 30 32 34 34 35 35 34 33 30 29 31 33 35 37 39 41 43 43 41 40 39 40 42 43 42 43 45
2 4 7 11 14 12 11 13 12 11 11 10 12 13 14 13 13 15 16 14 11 10 10 11 15 16 10 4 6 7 6 6 6 6 6 6 7 8 9 11 12 13 13 13 13 13 12 12 12 13 17 22 25 28 30 30 31 33 33 35 36 36 36 35 34 34 34 32 30 30 32 35 37 39 40 42 41 40 40 40 40 41 42 43 44 45
2 4 5 9 11 9 9 10 10 10 11 10 12 12 12 14 16 17 16 14 14 16 16 16 17 13 3 5 4 4 4 4 3 2 3 5 7 7 8 9 10 11 12 12 12 11 10 10 10 11 15 20 23 26 28 29 30 31 31 34 36 37 38 37 35 34 34 34 34 35 33 33 35 37 39 40 40 40 40 39 39 39 41 43 44 43
3 3 3 3 6 7 9 9 10 11 12 13 13 12 13 16 17 17 16 15 15 17 15 14 15 8 2 3 2 3 3 3 3 2 2 4 5 6 8 9 8 8 9 10 11 11 11 11 11 11 14 18 22 24 25 27 29 30 31 33 35 36 37 36 35 34 33 32 35 37 36 34 33 35 37 38 38 39 39 38 38 39 40 41 41 40
3 2 4 5 6 8 10 13 14 12 11 13 13 14 18 18 16 16 12 7 8 10 10 11 9 3 1 1 1 1 3 4 5 4 2 2 4 7 9 10 9 8 8 9 9 10 11 12 12 12 15 19 23 25 27 28 29 29 32 35 36 36 36 35 34 34 32 32 35 37 37 36 35 33 34 36 37 37 37 37 37 37 38 38 38 38
3 3 3 5 6 7 12 14 11 9 9 12 12 14 19 18 17 18 9 1 1 4 4 6 3 2 2 3 2 3 4 4 5 5 2 1 4 7 9 9 9 8 8 8 9 9 10 10 11 13 17 21 23 26 28 30 29 29 32 34 35 35 35 35 35 34 33 34 35 37 38 39 37 34 33 34 35 35 34 33 35 36 36 36 36 35
4 6 5 4 5 10 13 9 5 6 11 11 5 5 9 11 11 11 4 3 1 1 2 2 3 4 3 2 1 3 4 3 5 5 2 1 3 6 8 7 7 8 8 8 8 9 8 9 12 16 19 21 23 26 28 28 28 29 31 32 32 32 32 33 34 32 32 34 35 36 37 39 38 36 35 33 32 31 30 31 33 33 33 33 32 33
7 8 6 4 4 7 7 5 5 10 10 4 1 1 1 2 5 5 5 4 3 4 6 5 4 4 4 3 3 4 5 5 6 6 4 3 1 5 7 7 7 8 8 8 9 9 9 11 13 17 19 21 23 26 27 27 29 31 32 31 31 31 30 31 32 30 30 33 35 36 36 37 37 37 37 35 31 28 28 29 30 31 30 30 31 34
10 8 4 3 3 2 1 3 7 7 2 2 0 2 1 4 6 6 3 4 5 5 5 4 4 5 5 4 5 5 6 6 6 6 5 5 2 2 5 6 7 7 7 7 8 9 10 13 15 17 19 21 23 24 24 26 28 31 32 31 30 30 30 29 29 28 29 32 34 36 37 36 36 36 37 36 32 28 27 28 29 29 29 29 30 31
9 7 4 4 4 3 3 7 7 7 5 3 2 1 1 3 3 2 1 3 4 2 2 4 5 6 6 5 6 5 5 5 5 4 5 5 4 4 5 6 7 7 7 8 10 12 14 15 16 18 20 21 22 23 23 26 29 29 29 30 29 29 29 28 27 27 29 32 34 36 37 37 36 36 35 35 32 29 29 28 27 27 26 27 28 29
9 8 6 5 5 4 4 5 5 7 7 3 3 4 3 4 5 3 0 2 3 3 5 6 7 7 7 6 6 5 3 3 5 3 4 4 3 4 5 6 8 9 9 10 12 14 15 15 16 18 18 19 21 22 23 26 28 27 27 27 27 28 28 27 27 28 29 32 34 35 36 37 36 35 34 33 31 30 29 27 26 25 25 26 27 28
9 8 7 6 5 5 5 4 4 6 5 3 5 7 4 3 5 3 1 1 2 3 5 7 8 8 7 6 6 3 2 3 5 4 4 4 3 4 5 7 8 10 12 13 14 15 16 17 17 17 17 18 20 22 24 26 27 25 25 27 27 26 26 27 28 29 31 33 34 34 34 34 34 34 33 32 31 30 28 27 25 24 24 25 26 26
3 4 5 6 6 6 6 5 3 4 3 4 6 6 4 3 5 1 5 3 3 3 6 8 8 8 7 7 5 3 4 5 5 5 5 5 5 5 6 8 8 9 12 15 16 17 18 18 18 17 17 18 20 23 24 25 25 24 24 27 27 25 25 27 29 31 33 34 33 31 32 33 33 34 34 33 32 31 28 26 24 23 23 25 26 26
1 2 2 4 6 7 8 7 4 4 4 4 6 7 5 1 3 2 7 4 3 4 6 8 8 8 7 7 5 5 6 7 5 6 8 7 7 7 8 10 12 14 16 18 19 19 18 18 19 19 20 22 22 24 24 24 24 23 24 24 25 25 28 30 32 34 36 34 31 30 32 33 33 34 34 34 33 31 29 25 23 23 23 24 24 24
2 1 1 3 4 4 5 5 5 5 3 3 4 6 3 2 2 5 5 2 2 4 5 6 8 8 7 7 7 7 8 7 7 8 8 8 9 9 9 10 12 14 17 19 21 21 18 19 20 21 24 26 26 26 26 24 23 24 24 23 24 26 29 33 35 36 36 32 30 31 33 34 34 34 34 34 33 31 29 26 22 21 22 22 22 22
3 1 2 3 3 1 2 4 4 5 2 3 1 2 1 3 4 5 3 2 3 5 5 5 7 7 7 8 9 9 8 8 8 9 8 9 10 9 9 10 10 13 15 17 20 20 18 18 20 23 26 29 29 29 27 24 24 25 24 24 26 28 30 33 36 37 35 32 31 33 34 35 36 35 33 33 32 30 29 26 22 20 20 20 21 21
3 3 3 3 2 2 3 5 5 4 4 3 2 1 4 6 5 4 4 5 5 4 4 5 6 8 8 8 9 9 8 8 9 9 8 9 9 9 10 10 11 14 16 17 20 20 18 18 20 24 28 32 33 31 28 25 25 26 28 29 29 30 32 35 36 35 34 33 34 37 37 37 37 36 33 32 31 28 28 26 22 20 20 20 20 19
3 4 4 4 4 4 5 6 6 3 3 4 4 5 8 11 7 4 5 5 5 4 4 4 6 8 8 8 8 8 7 9 9 9 8 9 8 9 11 12 14 16 17 19 22 22 19 19 21 24 29 34 36 32 29 26 24 25 31 33 31 32 35 36 34 32 33 36 39 41 41 40 39 37 34 32 29 27 26 25 23 21 20 20 19 19
4 3 3 2 5 5 6 9 8 5 6 9 9 8 9 9 6 5 5 5 6 6 5 5 7 8 7 7 7 7 8 9 9 9 9 8 9 10 11 13 16 17 18 20 23 24 22 21 23 24 27 33 37 34 30 28 26 27 31 34 34 34 35 34 33 33 35 39 42 42 41 41 40 37 34 31 28 27 27 25 24 22 21 20 20 19
5 4 3 4 8 8 8 10 7 6 9 11 10 10 9 7 6 4 4 5 7 7 6 6 7 8 6 6 6 7 8 8 8 9 8 7 9 12 11 11 14 18 20 22 24 25 24 22 23 24 24 30 36 36 32 31 32 31 33 34 35 35 34 34 34 35 37 39 41 41 41 39 37 35 33 31 28 27 26 26 25 23 21 21 20 19
3 3 4 8 10 10 11 13 9 8 10 10 8 9 9 8 8 7 6 6 7 7 6 5 5 5 4 4 4 5 7 8 8 8 8 8 9 11 11 11 14 18 22 26 26 24 23 22 23 24 24 28 34 36 34 34 36 36 36 36 35 33 34 36 36 36 39 41 40 37 36 35 34 34 33 32 29 26 25 25 25 25 25 26 25 22
3 3 4 5 7 9 11 13 11 9 10 10 9 10 9 8 8 8 8 7 6 5 5 4 2 2 3 3 3 2 6 9 8 6 7 9 11 11 11 14 17 20 23 27 27 25 24 24 25 25 27 31 35 35 36 37 39 39 37 35 35 33 33 37 38 39 41 42 38 34 32 32 32 32 31 31 29 27 27 27 27 28 30 31 31 30
5 7 6 3 5 9 11 11 10 9 9 9 10 9 7 5 5 6 7 6 4 3 3 4 5 4 3 3 3 3 6 9 8 7 8 9 11 13 15 17 19 22 25 27 27 26 26 27 27 28 30 34 35 35 37 40 43 42 38 34 34 33 34 37 38 37 38 37 34 32 31 29 30 30 28 28 27 26 27 29 29 30 31 31 31 33
7 9 9 7 8 11 12 13 10 7 6 9 10 7 2 0 1 2 3 3 3 3 3 4 5 6 6 5 4 4 7 9 9 9 9 10 14 18 20 20 20 22 26 28 26 26 27 29 29 29 31 34 36 36 38 41 45 45 41 37 34 33 34 36 34 32 34 34 32 31 29 28 29 29 28 28 28 26 25 25 25 27 30 30 28 27
Wind_Direction
128 148 171 195 211 221 222 211 223 245 280 296 286 270 266 275 273 262 269 267 252 278 261 255 273 278 275 275 267 268 270 261 266 273 274 271 265 263 264 267 263 256 258 265 273 274 270 264 260 256 253 248 243 239 234 228 223 221 219 217 216 214 210 206 204 202 201 200 200 202 206 210 213 212 212 214 216 218 219 219 219 219 220 220 220 220
104 174 218 221 218 225 231 225 247 279 311 288 265 276 272 261 270 268 270 275 264 261 255 246 272 277 275 279 270 261 265 257 252 259 272 276 270 264 262 264 266 265 268 275 278 275 270 265 259 254 249 240 235 233 229 226 223 221 218 217 216 211 207 206 205 202 202 203 202 202 206 209 209 208 209 211 214 215 217 218 218 218 218 219 219 219
129 212 234 232 228 256 349 44 245 250 254 258 248 277 280 257 275 274 258 274 279 233 276 278 275 276 273 269 263 252 248 252 255 247 259 273 275 268 260 261 270 278 280 279 277 278 273 267 262 253 245 239 237 235 232 227 224 219 216 216 214 209 207 206 205 203 204 205 205 205 207 207 206 208 210 211 212 214 215 217 217 217 217 218 218 218
194 238 236 232 225 233 272 263 257 272 249 232 220 256 274 260 272 273 252 298 319 242 274 290 284 281 266 257 257 254 250 257 266 253 248 260 263 261 264 270 274 274 281 287 286 285 283 282 274 257 249 246 241 236 232 227 221 218 216 215 212 209 207 205 205 205 205 204 204 206 208 207 206 209 209 210 213 214 215 215 215 216 216 217 218 219
238 245 213 173 176 193 232 254 247 265 257 219 203 223 256 257 251 254 270 326 332 285 287 303 297 288 243 242 260 274 277 257 256 258 252 250 253 263 281 280 269 267 277 286 287 286 288 304 300 263 255 251 244 238 234 229 224 221 219 216 211 209 207 205 204 202 201 199 198 198 200 200 201 205 204 206 211 212 213 214 215 216 216 217 218 219
258 246 158 139 166 160 190 238 226 225 250 259 213 217 237 251 254 259 283 335 352 311 329 5 322 297 176 174 264 305 319 264 249 247 248 251 265 285 289 275 273 276 268 267 275 280 287 311 320 274 254 247 245 245 243 237 231 226 221 216 211 207 206 204 202 199 196 195 193 191 189 188 190 194 199 204 207 206 209 213 215 215 216 216 217 219
254 247 143 177 190 143 165 238 229 195 227 281 234 213 227 242 253 260 281 319 312 263 298 61 2 285 283 185 234 249 248 259 254 245 251 267 286 281 271 273 283 287 273 265 267 274 287 314 322 280 255 249 252 256 253 242 234 228 222 216 210 207 205 202 200 197 195 193 193 194 194 194 194 196 203 207 207 207 209 212 213 213 214 214 215 216
214 181 96 131 150 151 187 243 218 165 176 261 232 188 208 230 239 228 222 224 237 281 299 153 154 272 285 242 203 223 228 256 262 260 269 274 267 267 269 277 285 281 278 280 280 287 304 316 299 273 265 262 263 266 260 245 236 228 222 217 211 207 205 202 198 196 195 195 195 197 199 201 203 205 208 208 207 208 209 209 211 211 212 212 213 215
175 178 167 145 130 169 206 217 179 155 179 245 192 142 166 202 209 171 166 198 266 340 308 222 151 248 281 263 124 202 233 252 264 269 276 266 259 270 275 281 284 278 280 285 285 298 312 303 281 274 276 275 273 272 265 251 240 228 221 216 210 207 204 201 199 197 197 198 197 198 200 204 208 210 211 209 206 207 207 208 209 210 210 211 211 213
212 206 184 153 152 206 215 201 167 164 194 224 141 106 84 93 97 117 151 148 54 322 261 205 159 225 281 276 102 77 232 247 266 269 274 275 268 270 276 280 281 285 296 297 292 296 295 287 291 293 288 285 282 277 267 251 236 224 217 212 207 205 203 201 200 198 198 199 199 200 202 205 207 207 208 207 205 205 206 206 207 208 209 210 210 211
252 288 154 163 191 201 181 156 175 178 187 115 101 61 22 31 47 63 89 101 75 287 242 187 183 193 287 303 121 181 216 232 274 283 282 288 286 282 280 276 283 303 313 311 312 307 298 296 307 307 296 295 295 281 259 235 221 214 210 207 205 204 203 202 200 199 200 201 202 204 205 206 205 203 202 200 200 202 203 204 205 207 208 210 211 211
261 181 227 250 234 158 129 115 306 7 71 64 76 52 5 333 16 33 355 59 144 261 244 190 184 177 240 267 37 273 267 246 257 269 273 288 302 302 292 282 292 315 311 309 312 307 313 323 326 320 311 312 310 288 249 220 210 206 204 203 202 202 202 202 201 201 202 202 204 207 207 207 206 203 202 200 200 201 201 203 204 205 207 209 210 210
284 218 243 291 255 165 143 181 326 13 72 100 112 87 21 311 352 8 309 107 196 252 245 189 174 185 244 257 287 288 282 266 242 236 245 269 289 289 283 290 308 322 314 311 306 298 309 321 326 328 326 324 314 295 259 225 210 203 202 201 201 202 202 202 202 203 204 205 207 208 209 209 209 206 206 205 204 203 202 202 202 202 204 205 207 209
294 275 242 240 269 180 150 167 235 235 155 146 151 146 147 192 264 269 259 267 263 270 268 183 167 233 272 269 251 251 263 269 257 243 243 254 268 268 276 299 313 309 307 309 307 299 297 310 319 324 322 315 303 287 260 234 221 207 202 202 204 206 206 204 204 204 205 207 209 210 212 212 211 210 210 209 207 206 204 203 204 204 205 206 208 211
251 287 223 184 241 172 171 194 182 144 156 174 162 150 159 175 202 239 239 253 268 273 289 194 171 217 267 278 230 232 259 289 284 264 260 261 265 273 287 299 300 298 302 302 297 304 318 321 318 316 310 297 283 279 255 232 226 218 208 206 208 211 211 209 208 207 207 209 210 212 213 214 214 214 214 213 212 210 208 206 206 207 208 210 212 214
213 264 248 238 228 156 180 217 136 114 129 225 135 115 203 198 188 245 253 246 268 290 269 236 221 221 254 294 281 263 269 276 274 273 278 279 276 292 301 296 302 303 301 304 314 340 348 336 319 314 307 294 271 218 242 232 226 223 216 212 213 215 216 215 213 213 213 213 212 213 214 215 216 217 218 218 217 214 212 210 209 210 212 214 215 215
233 267 264 7 7 182 193 202 150 160 195 157 126 188 227 187 151 248 280 280 280 276 258 245 263 273 294 293 289 296 295 288 296 295 289 292 304 334 322 307 312 301 292 306 329 344 339 335 333 321 311 302 296 223 230 233 230 227 224 220 218 218 219 218 218 218 218 217 217 216 216 216 216 217 219 221 220 219 218 216 215 215 215 215 215 215
233 271 251 164 194 230 199 145 278 238 156 138 182 229 235 141 118 181 277 311 265 256 253 236 259 279 293 281 293 321 308 301 318 310 307 317 324 329 313 297 289 287 301 326 335 339 339 346 347 340 341 342 334 313 270 249 239 234 232 230 228 226 224 223 222 221 220 220 220 220 219 218 218 218 219 221 222 223 222 220 219 217 216 216 215 215
205 265 274 190 187 226 79 86 293 298 133 147 206 253 62 204 263 260 181 230 247 255 259 225 243 258 251 261 287 294 286 286 298 303 306 308 300 296 292 292 305 324 344 356 359 0 2 2 359 355 354 355 351 339 323 306 280 258 250 247 245 243 239 236 232 228 226 225 224 225 224 223 222 222 221 221 221 222 223 224 222 220 219 217 216 215
123 241 278 341 157 137 26 271 232 266 337 37 26 330 49 183 232 246 188 184 248 264 270 249 244 242 222 247 266 270 278 286 282 255 278 286 288 287 283 307 341 359 5 8 7 6 6 6 7 7 3 2 2 355 346 336 319 301 289 276 268 262 257 251 245 239 236 233 230 229 229 228 227 226 225 224 222 222 224 225 225 224 222 220 218 217
66 242 255 277 214 155 285 229 204 208 213 115 119 237 228 212 247 273 231 208 247 262 268 264 256 242 218 241 254 260 276 287 266 218 265 301 324 324 334 353 6 15 14 13 12 8 9 9 10 13 13 13 14 11 7 359 345 331 317 303 292 281 272 264 257 251 248 244 240 237 235 233 231 230 229 228 226 226 226 226 227 227 226 224 221 218
175 233 240 247 245 243 246 226 197 199 191 177 193 201 220 234 251 274 256 224 227 244 252 262 262 251 229 251 258 266 282 292 312 5 346 354 357 353 2 11 17 21 16 13 12 10 10 10 11 14 15 16 15 12 10 8 2 355 344 334 322 304 290 279 268 262 259 257 253 249 246 242 238 235 232 230 229 229 228 228 228 228 227 226 224 221
162 148 232 242 239 247 261 260 216 186 160 166 210 198 220 226 206 240 253 247 244 247 250 260 261 249 208 229 253 276 289 297 348 32 31 25 22 19 19 17 17 19 15 11 11 11 11 8 8 12 15 16 15 11 8 6 5 3 359 354 345 331 317 301 284 273 267 263 260 257 255 252 247 242 238 234 232 231 230 229 229 229 228 226 224 222
97 119 240 256 258 263 277 292 296 132 114 129 239 198 197 208 212 235 250 274 266 256 260 264 261 250 215 242 270 294 299 319 27 40 34 34 30 23 21 17 15 13 9 11 11 10 11 10 9 11 11 11 11 9 7 4 3 3 2 0 355 348 340 328 310 292 277 268 263 259 255 253 250 246 242 239 235 234 232 230 229 228 227 225 223 222
297 223 238 261 272 275 284 296 308 335 132 199 241 231 224 233 250 264 277 293 269 244 248 259 263 263 303 321 315 322 334 5 41 40 32 37 27 17 20 17 14 11 9 9 9 8 9 9 10 8 6 4 3 4 4 3 2 2 1 1 358 354 350 344 335 318 298 282 271 264 258 254 251 247 244 242 240 238 236 232 229 228 226 224 222 221
278 246 240 247 251 254 260 262 273 283 249 219 250 251 249 234 233 249 268 260 254 237 237 254 268 271 291 313 318 345 2 11 26 28 27 29 19 16 18 14 13 14 10 8 7 6 5 4 4 2 360 359 357 357 358 359 360 359 359 359 357 355 352 349 346 337 322 304 286 274 266 260 254 250 247 245 244 242 239 234 231 228 227 224 222 220
229 243 241 244 249 255 265 273 292 304 287 284 281 271 270 258 240 244 251 249 262 266 254 259 273 279 283 297 326 8 18 14 19 22 21 19 15 13 11 8 12 12 7 6 5 4 2 0 359 356 354 352 351 352 352 353 355 356 356 357 355 354 353 351 349 344 333 318 301 287 277 269 262 257 253 250 247 245 241 236 232 229 227 225 222 220
181 246 245 249 257 260 268 276 282 284 275 272 275 272 268 269 264 259 255 254 264 274 266 263 271 276 279 295 11 25 15 11 23 24 19 18 13 10 7 6 7 6 3 3 0 1 360 355 352 350 348 348 347 348 349 349 351 352 352 353 353 353 352 351 350 347 342 331 314 299 289 281 272 265 260 256 252 248 243 238 233 230 227 225 222 221
177 259 259 262 272 272 275 281 280 276 271 265 268 269 270 273 268 260 260 264 266 263 267 274 274 277 290 349 37 34 11 358 15 27 23 20 13 10 12 8 5 1 357 356 354 354 352 346 345 344 342 344 345 345 346 347 348 349 350 350 350 350 350 349 349 348 347 344 335 322 307 294 282 273 266 261 256 251 245 240 235 231 227 224 223 222
195 257 259 265 278 279 275 279 281 282 282 276 270 269 270 269 265 263 264 265 260 258 263 271 272 274 325 38 19 28 23 341 352 34 29 25 19 14 13 10 4 357 351 348 345 342 341 339 337 336 339 343 344 344 344 344 345 346 347 347 347 347 347 347 347 348 349 349 347 341 329 312 295 283 273 265 258 253 247 242 237 231 227 225 224 222
245 267 319 319 294 281 274 271 269 272 276 277 278 274 267 263 262 264 266 263 261 263 266 269 267 265 67 56 333 358 11 338 354 14 14 26 18 9 11 7 359 350 344 339 336 335 337 337 336 338 341 341 341 342 342 341 341 342 344 345 345 344 345 345 345 345 346 347 347 346 342 331 315 297 283 272 263 255 248 242 236 231 228 225 223 221
281 304 347 331 288 277 282 281 282 288 288 279 276 269 263 262 259 258 262 265 260 263 275 278 270 247 93 322 276 310 337 353 358 343 333 10 360 1 6 358 347 343 338 333 333 334 334 335 337 339 340 339 340 341 341 339 340 341 342 341 340 341 342 344 343 342 342 344 346 347 346 341 330 315 297 282 269 259 250 242 236 231 228 225 222 219
257 277 302 288 278 278 278 282 295 316 302 277 262 254 254 255 256 256 259 20 251 239 258 275 256 159 213 273 305 320 330 350 340 323 313 320 344 360 0 347 337 334 331 329 329 328 328 328 331 335 336 337 338 338 338 338 338 339 339 336 335 337 340 341 342 340 340 341 343 345 346 344 338 327 311 295 279 265 254 244 237 232 228 225 222 219
236 257 264 260 268 276 282 302 343 303 275 270 261 239 244 247 247 245 226 92 52 200 130 142 135 141 202 247 284 294 296 299 297 294 260 215 344 353 345 333 327 323 322 324 323 323 324 323 326 331 333 333 334 335 335 335 335 334 333 333 332 334 336 337 338 338 337 338 340 341 343 344 341 333 323 310 293 276 261 249 241 235 231 226 222 218
249 253 252 236 241 272 298 335 308 266 259 265 2 354 237 135 119 122 123 127 132 113 115 130 151 173 203 225 231 251 262 260 271 277 251 204 359 344 327 318 317 316 315 317 319 320 319 321 325 329 329 329 331 332 332 333 333 332 331 332 332 332 333 334 333 334 336 336 337 338 339 340 339 335 329 320 306 287 270 257 247 240 233 227 223 220
240 246 240 225 228 269 308 233 249 266 266 107 351 312 64 95 102 102 116 173 170 142 135 159 196 202 207 228 235 244 260 263 272 267 228 189 177 294 297 302 305 302 299 303 308 309 311 316 321 323 323 325 327 328 328 330 331 330 328 329 329 329 331 331 330 332 334 334 335 335 334 335 335 334 331 325 313 296 279 266 255 246 237 230 226 223
222 228 219 227 228 222 232 231 244 279 280 221 216 251 161 149 152 139 144 173 175 193 198 192 212 220 215 226 242 253 265 281 295 267 201 179 190 223 250 277 284 281 283 289 295 299 303 308 314 317 319 321 323 324 326 328 330 328 324 324 326 328 329 329 328 330 332 332 331 331 331 331 331 330 330 325 315 301 287 274 262 253 243 233 228 225
210 216 209 227 240 225 242 253 247 261 260 211 197 240 225 191 195 193 164 159 167 252 245 205 210 226 217 220 245 261 281 309 313 282 200 190 230 248 256 270 272 272 278 287 294 298 299 303 309 312 313 315 317 320 323 326 326 324 320 321 325 327 327 327 328 330 330 328 326 327 327 328 327 326 325 321 313 303 293 282 270 260 249 238 233 230
203 216 211 224 243 231 240 254 238 249 259 194 208 238 241 202 184 161 342 221 171 262 246 200 207 228 217 219 235 238 275 300 297 277 229 218 256 271 275 279 275 273 281 290 294 295 297 302 306 306 307 310 313 316 321 324 323 321 320 321 324 325 324 325 326 328 326 323 322 322 322 324 324 322 319 316 312 306 298 288 278 266 253 243 237 235
181 220 216 219 235 239 249 260 253 260 258 187 196 232 245 191 142 86 303 266 171 234 228 192 209 231 214 215 222 201 225 253 265 277 277 274 274 271 275 280 279 281 289 294 295 296 299 304 306 305 305 307 308 312 317 320 319 319 319 321 322 321 320 322 323 323 322 319 317 318 319 320 321 320 318 315 311 307 301 293 282 270 257 247 241 237
247 248 226 215 233 243 249 258 268 272 250 198 199 231 244 160 99 271 270 242 166 229 216 187 213 232 213 210 213 202 225 237 245 271 286 293 291 285 281 280 282 288 293 296 299 302 304 305 304 303 302 303 307 310 315 318 317 315 316 317 316 315 317 319 320 320 319 316 314 315 317 317 318 318 318 316 313 308 301 293 283 271 260 250 242 236
235 271 283 213 221 238 244 253 274 279 245 169 207 237 218 125 187 235 235 195 202 255 233 197 215 229 216 212 217 221 236 248 257 268 276 283 285 286 285 284 284 289 292 295 299 304 308 309 307 304 303 304 307 310 314 316 313 310 312 310 307 311 316 317 318 319 317 313 311 313 315 315 315 315 315 315 314 307 298 291 282 269 259 249 241 234
215 208 255 216 197 235 251 237 254 264 230 134 109 298 175 165 220 253 290 288 240 244 244 225 223 226 220 221 229 235 242 252 261 264 266 271 277 281 283 284 283 285 287 290 293 298 305 307 303 301 302 304 306 309 312 313 310 308 307 303 304 312 316 316 317 317 313 310 309 311 313 313 312 312 311 311 310 304 295 288 278 265 254 244 237 231
240 210 239 239 218 213 222 222 222 225 219 187 148 198 249 252 256 270 293 285 259 235 233 234 233 230 223 223 233 239 243 251 257 261 264 268 274 280 282 283 283 284 288 290 291 296 302 301 298 299 300 301 303 305 308 309 308 306 303 302 308 316 316 315 316 314 310 309 309 309 310 310 309 307 305 304 303 297 289 282 272 260 250 240 232 227
224 188 206 249 250 206 202 235 245 222 230 251 241 235 256 271 273 229 215 248 263 242 220 224 243 243 228 219 229 239 245 251 257 262 267 270 276 280 283 286 285 286 289 291 292 295 299 298 296 297 298 298 299 301 302 303 303 300 298 302 311 316 315 314 313 310 308 308 308 308 308 308 306 303 299 298 295 288 281 275 265 253 243 233 226 223
245 198 168 258 279 264 242 248 255 261 270 272 273 271 267 272 270 229 205 230 254 249 233 226 242 251 235 211 216 236 248 256 262 267 270 276 283 284 283 286 288 289 290 289 290 294 298 298 296 294 293 295 296 297 298 299 297 294 295 302 311 314 313 311 309 307 306 306 305 306 306 305 303 301 298 294 288 281 275 268 258 249 239 228 222 221
255 206 186 244 267 271 264 256 248 250 263 268 276 281 276 267 261 243 224 240 258 265 261 243 240 248 236 207 214 239 255 262 269 274 280 285 285 285 287 288 289 290 288 285 288 294 298 298 294 291 291 291 293 295 297 298 296 295 297 303 309 311 310 309 307 305 303 302 302 303 303 302 299 297 296 293 286 277 271 263 253 245 237 227 220 217
242 169 188 238 250 251 259 266 264 258 263 269 271 273 276 277 275 270 260 258 266 272 270 250 234 239 239 229 232 250 265 271 272 278 289 292 285 284 286 284 284 286 287 286 289 294 295 292 288 288 288 287 289 293 296 295 295 296 300 304 306 308 308 305 304 303 300 298 298 297 296 295 294 292 292 290 283 273 266 258 248 240 236 230 223 217
230 192 191 223 251 257 260 268 274 273 273 271 259 254 260 266 268 273 276 276 280 285 292 299 285 260 265 286 301 287 274 278 283 285 286 286 285 285 284 283 285 286 285 287 291 293 292 288 286 287 286 286 288 293 294 294 295 296 299 302 304 306 306 302 301 300 297 296 296 293 291 290 288 286 286 285 282 274 266 259 250 243 242 239 233 227
218 236 234 221 250 261 261 259 260 265 271 271 265 262 259 246 243 260 279 297 319 337 341 333 318 301 287 288 299 288 275 279 286 286 281 279 280 281 283 285 288 287 286 288 292 292 289 287 286 287 286 286 290 293 294 294 296 296 298 300 302 303 301 298 297 296 293 293 294 292 291 289 285 283 282 282 281 278 272 266 257 248 245 245 242 237
218 232 235 231 243 255 261 259 255 252 256 264 269 276 291 28 218 254 286 327 9 26 21 357 325 311 307 298 275 254 260 273 281 281 279 278 278 280 283 285 286 286 288 291 293 293 291 291 290 289 287 289 292 294 294 294 295 295 297 300 301 300 297 292 291 290 288 289 289 289 290 288 285 284 282 279 279 278 275 271 264 253 247 245 243 239
Height
807 811 815 812 807 803 800 804 803 800 804 808 811 812 811 810 803 796 791 784 786 788 783 777 768 762 762 758 757 753 751 753 747 740 733 731 732 730 726 719 714 712 705 700 701 701 703 704 705 707 707 708 709 710 712 713 714 715 718 720 721 724 729 732 734 737 740 742 745 748 749 750 752 756 759 762 764 767 769 772 775 778 781 783 786 788
809 813 813 804 797 797 800 803 805 806 809 810 812 814 813 813 802 791 788 783 785 789 780 774 768 761 761 757 753 752 750 745 740 738 732 725 725 724 721 715 707 705 701 700 700 698 699 700 701 703 703 704 705 706 707 707 708 710 713 714 716 720 724 725 727 730 732 734 736 737 739 742 746 750 753 755 758 762 766 769 771 774 777 780 782 785
813 814 807 798 797 802 804 805 806 807 809 810 815 817 814 811 799 787 786 783 787 789 779 776 769 758 758 754 746 743 740 734 731 735 733 724 722 719 713 710 706 703 700 699 698 695 695 697 698 700 701 702 702 702 703 703 704 707 709 709 712 715 718 721 724 726 728 731 734 736 738 742 746 748 751 754 757 760 763 765 768 770 773 776 779 782
810 805 797 796 801 805 805 805 805 806 808 809 813 816 809 804 801 791 784 782 788 788 780 780 769 752 749 745 737 734 732 732 731 730 730 724 717 711 707 708 708 704 700 698 697 694 692 695 698 699 700 700 700 701 700 701 702 703 703 705 707 710 712 716 719 723 726 731 736 739 741 744 746 748 751 755 757 758 760 762 765 767 769 772 775 779
799 793 792 797 801 804 806 806 807 807 805 805 809 811 803 797 798 794 786 785 790 787 782 781 763 739 736 737 731 731 733 732 731 727 725 719 709 707 709 708 705 705 704 700 696 692 690 693 697 697 698 699 698 697 697 697 697 697 698 700 702 705 707 710 714 718 724 729 733 737 741 744 746 749 751 752 753 754 756 758 760 762 765 768 771 775
796 791 792 795 798 804 807 805 804 804 803 803 802 798 793 790 793 792 791 795 795 787 784 786 770 740 731 736 730 726 729 726 725 724 716 711 710 712 713 705 701 704 704 702 697 691 689 692 695 696 696 697 695 693 692 692 693 694 695 697 700 702 704 707 710 714 719 722 727 731 734 737 739 742 742 741 742 745 748 750 753 757 760 763 766 769
793 790 791 792 795 802 807 803 798 799 805 804 794 785 786 790 793 794 796 800 795 788 788 791 785 762 735 731 730 724 725 721 716 714 710 712 715 713 710 703 701 703 701 699 696 691 690 692 694 694 694 693 691 689 689 690 691 692 694 696 698 701 702 705 708 711 714 718 721 724 726 728 730 731 731 732 736 739 743 746 749 753 755 758 761 764
787 789 793 793 795 800 803 799 792 797 804 799 789 783 784 787 792 796 797 799 796 791 792 788 789 784 750 727 727 724 724 723 714 710 712 715 714 709 706 704 702 701 698 697 695 691 692 693 692 691 690 689 687 686 687 688 689 690 693 695 697 699 701 704 706 709 711 713 716 720 723 726 726 727 729 732 736 739 742 746 748 750 752 755 757 760
784 786 789 791 796 799 794 787 786 794 794 788 789 790 788 789 792 795 794 797 802 798 794 788 787 790 758 725 728 731 729 726 714 711 712 711 712 710 706 703 701 699 696 696 694 692 692 692 691 689 687 686 685 685 685 686 688 690 692 694 696 699 700 703 706 708 710 711 714 717 720 723 725 728 731 734 737 739 742 744 746 749 751 753 755 757
785 786 787 786 789 788 782 781 784 785 784 785 792 792 791 794 794 797 795 794 801 796 789 789 786 785 755 718 724 736 732 724 713 710 712 711 713 710 705 702 697 696 695 694 693 693 692 690 689 687 685 684 683 683 683 684 687 689 691 694 696 698 700 703 705 708 710 712 714 716 717 720 723 727 730 733 736 738 740 742 744 746 749 751 754 755
786 789 791 784 779 777 777 785 788 784 784 788 791 787 788 794 794 801 799 794 800 793 781 780 778 782 764 726 723 731 726 724 718 708 706 709 710 706 702 699 695 696 696 694 693 690 689 688 687 686 684 683 682 682 682 682 684 687 689 692 694 697 700 702 704 706 708 711 712 713 715 717 720 723 726 729 732 734 737 739 741 743 745 748 750 752
788 790 789 779 776 777 777 784 792 793 792 790 790 787 787 791 793 799 800 797 800 787 775 775 775 783 770 734 724 726 720 722 723 713 706 705 706 701 699 698 696 699 698 696 696 691 687 685 685 685 684 684 684 683 683 683 683 685 687 690 692 695 697 700 702 704 706 708 709 710 712 714 716 719 720 722 724 727 730 733 737 740 743 745 747 749
782 784 785 779 776 778 778 782 791 793 793 792 792 794 797 798 796 797 796 798 796 781 776 781 780 779 759 727 722 722 714 712 714 714 710 706 704 700 697 697 698 701 699 696 696 694 690 687 685 686 685 685 685 686 686 686 685 686 687 689 692 693 695 697 699 701 703 705 705 707 710 711 713 714 715 717 719 721 724 728 731 734 738 740 743 744
776 778 782 779 773 773 776 779 781 782 788 794 790 792 798 799 798 795 792 797 791 774 776 784 779 771 749 724 718 714 706 706 706 709 710 706 705 702 699 700 701 702 700 698 697 695 693 690 687 687 687 686 685 686 688 689 689 689 689 691 693 694 696 696 696 698 700 702 704 706 708 710 711 712 712 713 715 717 719 722 725 727 731 733 735 736
782 777 772 770 766 768 771 768 767 770 781 789 784 784 787 783 784 785 778 779 774 763 773 785 777 761 739 718 712 709 706 708 708 706 708 708 708 707 705 705 704 701 700 701 699 695 693 693 691 689 688 686 684 686 688 689 691 692 691 692 694 696 697 698 698 698 697 698 700 703 706 708 710 711 712 712 713 713 715 717 720 722 725 727 729 731
787 775 763 766 768 768 767 764 764 768 776 785 784 783 780 771 769 772 767 762 763 766 771 774 765 746 726 711 707 709 708 707 707 704 705 708 708 708 706 703 702 701 702 702 698 694 693 694 694 692 690 688 684 685 688 689 691 692 692 692 693 694 696 697 699 698 698 698 698 700 702 704 708 710 711 712 713 713 714 714 715 717 720 722 726 729
781 772 763 770 772 767 765 764 764 765 769 780 785 777 772 770 766 769 770 763 766 774 763 753 750 739 729 717 704 702 703 704 707 705 704 705 704 705 703 701 704 705 705 702 697 696 696 696 696 693 692 691 686 685 686 688 690 691 692 691 691 692 692 693 695 696 697 698 698 698 698 700 702 705 708 710 712 714 715 715 715 715 717 719 722 725
774 770 761 763 765 766 772 770 764 764 766 772 776 768 766 772 768 769 779 774 773 777 761 747 746 742 739 726 705 701 703 702 704 702 700 701 700 702 703 706 710 708 704 701 700 703 703 702 702 699 696 695 693 691 689 688 689 690 691 692 691 691 691 691 692 693 695 696 697 697 697 698 699 699 702 705 709 713 714 715 714 714 714 716 719 722
774 772 761 758 760 765 773 771 764 766 768 767 768 766 768 775 772 771 780 780 777 775 762 750 745 742 741 729 713 709 703 698 702 701 698 698 698 702 706 709 711 706 703 705 706 708 709 708 708 706 703 701 700 700 698 697 696 695 696 695 695 695 695 695 696 695 695 695 695 696 696 697 697 697 699 700 703 707 710 712 713 713 713 713 715 718
776 776 767 761 763 765 768 767 763 765 769 771 771 770 771 775 774 771 771 770 770 768 759 752 744 737 730 721 716 713 700 697 704 703 699 699 702 708 710 711 714 713 715 717 716 714 714 714 713 711 710 708 706 706 705 705 705 704 703 702 701 700 699 699 699 698 696 695 695 695 696 696 697 698 699 700 702 703 704 708 711 712 712 712 712 713
777 779 773 765 765 769 766 761 758 759 763 769 772 773 773 770 769 769 764 758 760 762 758 753 746 734 721 712 710 707 699 698 704 706 705 706 708 711 714 719 725 727 729 728 725 724 721 719 717 714 713 711 709 708 708 708 708 707 707 706 705 704 703 701 701 700 699 699 698 696 694 694 695 697 699 700 701 700 701 704 707 710 712 712 711 711
777 776 774 769 767 765 758 752 752 752 754 759 762 763 764 762 765 770 764 753 752 755 752 749 745 731 716 709 705 702 700 700 706 714 717 719 723 725 730 736 739 738 738 736 733 731 728 724 722 719 716 713 711 710 710 709 709 708 707 707 706 705 705 703 702 702 702 702 702 700 698 698 697 697 698 698 699 699 700 701 703 706 708 709 709 710
773 776 776 771 765 758 752 749 750 752 753 757 759 758 757 758 761 764 761 752 748 747 743 743 742 729 714 707 704 704 703 702 713 727 732 735 740 743 745 746 744 743 743 741 738 735 733 731 727 724 720 718 716 715 713 712 712 712 710 708 707 706 705 704 702 701 700 700 699 699 700 701 700 699 698 697 696 696 696 697 699 701 702 704 706 707
775 778 776 771 761 755 752 749 751 756 758 760 759 758 759 758 755 755 756 755 754 751 745 744 741 726 712 708 707 708 708 711 729 745 745 746 749 750 751 749 747 747 744 742 740 737 735 733 729 727 724 722 720 719 718 717 715 715 713 711 709 707 706 704 702 700 698 697 695 695 696 696 697 698 697 695 694 692 691 692 693 695 696 698 700 702
778 774 771 773 768 762 760 756 755 757 759 762 760 755 757 757 756 758 759 763 765 757 749 750 744 728 718 715 712 714 718 727 745 756 754 755 756 753 753 751 749 748 744 742 740 736 734 732 731 730 728 726 725 722 721 720 718 717 716 714 712 710 707 704 701 699 697 695 693 693 692 692 693 694 693 692 691 689 688 689 690 691 692 693 695 696
780 773 768 773 772 766 762 760 757 755 756 762 760 755 756 758 760 763 764 768 765 751 744 746 740 729 724 720 718 728 740 746 754 761 759 759 760 756 754 753 750 749 748 745 743 740 738 736 734 732 731 730 728 726 723 721 720 719 717 716 714 711 708 705 701 698 696 694 692 690 690 691 691 691 689 689 687 685 685 686 687 688 688 689 691 692
782 778 769 768 767 761 758 756 755 758 760 760 758 754 755 756 758 762 766 764 756 746 743 739 733 731 729 727 735 751 761 761 762 765 765 764 764 762 759 757 755 754 752 750 748 746 743 740 738 736 735 733 730 728 725 722 720 718 717 716 713 710 708 704 701 698 695 693 691 689 688 689 689 688 686 685 683 682 682 682 682 683 683 685 686 687
782 781 770 767 766 762 761 759 758 761 762 760 759 756 755 756 758 762 763 755 749 750 744 734 733 735 730 735 755 769 770 768 769 770 770 769 768 767 764 762 759 757 756 753 751 749 746 744 742 740 738 736 732 729 726 722 720 717 715 713 711 709 706 703 701 699 696 693 691 688 687 687 685 684 683 681 680 679 679 678 677 677 678 680 682 681
783 781 769 767 767 762 762 761 759 762 761 760 761 759 757 758 759 759 755 748 750 752 742 734 733 733 737 751 768 775 773 772 771 771 772 771 769 768 766 765 763 761 759 757 754 752 751 748 746 744 741 738 734 730 726 723 720 716 713 711 708 706 704 703 701 699 696 693 690 688 686 684 683 681 680 678 676 675 674 673 673 673 674 675 675 676
785 781 769 769 771 767 767 765 763 765 765 762 762 760 759 758 756 755 751 747 749 745 737 737 735 737 757 773 772 771 774 772 770 770 771 772 770 769 768 766 766 764 762 760 758 756 754 751 749 746 743 740 736 732 728 725 721 718 714 712 709 707 704 702 700 698 695 692 690 687 685 683 681 679 677 675 673 671 670 670 670 670 670 670 670 672
783 779 770 772 778 774 768 766 765 765 764 763 761 759 758 756 753 751 747 743 742 737 735 737 734 742 767 779 772 771 773 771 770 770 770 770 770 768 767 766 766 765 764 762 760 757 754 751 749 746 743 741 737 734 731 727 722 718 715 712 710 707 705 702 700 697 695 693 690 687 684 682 679 677 675 673 671 669 667 666 666 666 666 666 667 669
782 781 776 779 784 776 766 765 765 764 765 767 765 760 756 753 750 744 741 741 741 740 741 739 739 752 771 776 772 772 771 770 771 769 768 769 767 764 764 763 763 763 762 761 759 757 754 752 749 746 743 741 737 733 730 726 722 718 714 711 709 707 705 702 700 697 695 692 689 686 684 681 678 676 674 671 669 667 665 663 662 662 662 662 663 665
784 786 785 786 787 777 768 768 768 771 775 768 757 751 747 745 742 736 740 749 751 751 750 747 751 765 774 772 772 771 769 770 769 765 765 767 764 762 761 761 760 760 759 758 757 756 754 751 749 747 744 741 737 733 729 726 722 719 716 713 711 708 705 702 699 697 694 691 689 685 682 680 677 675 673 671 669 666 664 662 660 659 658 658 659 661
785 788 788 788 787 780 771 772 779 785 779 759 745 746 745 741 739 740 748 759 760 757 758 758 762 770 771 770 771 769 767 767 765 763 763 763 762 761 760 760 759 758 756 756 754 753 752 750 748 745 743 740 737 733 730 727 724 721 719 716 713 709 706 702 699 696 693 691 689 686 683 680 676 674 672 670 668 665 663 660 658 656 655 655 656 657
786 788 788 786 787 783 777 782 790 782 762 751 751 755 753 748 748 754 762 765 763 762 764 767 768 769 768 768 767 766 764 763 762 761 760 760 759 758 758 758 757 756 755 753 752 751 750 747 745 743 741 738 736 733 730 727 724 722 719 717 714 710 707 703 699 696 693 691 688 686 683 680 676 673 670 668 667 664 661 658 656 654 653 652 652 652
782 785 786 784 785 785 783 785 781 762 749 757 763 759 756 757 757 761 765 764 764 764 764 766 767 765 766 765 764 763 762 761 760 758 757 757 756 756 756 756 755 754 753 752 751 749 748 746 744 742 740 737 735 732 730 727 725 723 719 717 714 710 706 703 699 696 693 690 687 685 683 680 676 672 669 666 665 662 659 657 654 652 651 650 650 650
779 781 785 786 782 781 784 778 765 753 749 756 760 757 756 758 756 756 760 763 766 767 764 764 764 763 763 763 762 761 761 761 759 755 753 754 754 754 755 754 753 752 751 750 749 747 746 744 743 741 739 736 734 732 730 728 726 724 721 717 713 709 705 701 698 695 692 689 686 683 681 678 675 671 667 665 664 662 659 656 653 651 650 649 648 648
777 777 780 786 778 772 777 774 764 759 750 747 755 757 755 756 755 755 761 765 766 767 764 762 761 760 761 761 760 760 761 762 758 752 751 752 752 752 753 751 750 750 748 747 746 744 743 742 741 739 738 735 734 732 729 728 726 724 721 716 712 707 702 698 696 693 691 688 685 682 679 677 674 671 668 666 664 662 658 654 651 649 649 648 647 647
777 776 776 782 776 768 770 769 763 756 747 746 755 755 753 757 756 755 761 763 761 762 762 759 759 758 758 759 759 760 762 762 756 750 749 750 750 750 750 748 747 746 745 744 743 741 741 739 738 737 735 733 732 729 728 726 724 722 718 713 709 705 701 697 694 692 690 687 684 682 679 676 675 673 670 667 663 660 656 652 649 647 647 647 646 646
777 776 775 776 773 768 769 767 760 751 745 748 753 751 752 756 754 757 761 756 753 757 757 755 756 755 755 757 758 760 760 756 751 747 745 746 747 748 747 746 745 743 742 741 740 739 738 736 735 734 732 731 729 727 726 724 721 718 714 709 706 703 700 698 695 692 689 686 683 680 678 675 673 671 669 666 661 657 653 649 647 646 645 645 645 645
774 774 776 774 771 770 770 770 764 752 745 749 753 751 752 754 755 758 756 748 749 753 752 752 753 752 752 755 756 757 754 748 746 745 743 744 744 744 744 744 742 741 739 738 737 736 735 734 732 731 729 727 726 724 723 721 717 714 711 708 705 702 699 697 694 691 687 684 681 679 676 673 670 667 664 662 659 654 650 647 646 645 644 643 643 644
772 775 780 777 775 776 772 769 767 756 747 751 754 750 751 756 755 750 745 744 747 747 746 749 750 748 750 751 750 750 747 744 744 744 743 742 741 740 740 740 739 738 737 735 734 733 732 731 729 727 725 723 722 720 718 716 713 710 707 705 703 700 697 695 691 688 685 682 679 676 674 671 668 663 660 658 656 653 649 645 644 643 642 642 641 642
767 774 776 769 768 774 773 770 769 759 748 749 751 746 747 750 747 741 741 745 746 744 745 747 746 745 748 747 746 745 744 743 743 742 741 741 739 738 738 737 737 735 734 733 731 730 730 729 726 724 722 719 718 716 714 713 710 706 703 701 698 697 695 692 689 686 682 678 676 673 671 669 665 661 657 654 653 651 647 644 642 640 640 640 639 640
765 769 769 761 758 764 767 762 757 750 745 747 750 747 744 743 741 741 743 743 743 743 744 744 743 743 743 743 743 742 742 741 740 739 739 739 737 736 735 734 733 733 731 730 729 727 728 726 723 721 718 715 713 712 711 710 707 703 699 696 695 694 691 688 686 683 678 675 672 669 667 665 662 659 655 651 650 649 646 643 640 638 637 637 637 638
761 761 764 761 757 758 758 750 744 745 746 746 746 745 742 739 739 742 743 742 741 742 741 741 740 739 739 741 741 740 739 738 737 737 737 736 735 734 733 731 730 730 728 727 725 724 724 723 720 718 714 711 709 708 708 707 705 701 696 693 693 692 688 685 683 679 675 672 668 665 663 660 657 655 652 648 646 645 643 641 638 636 634 634 634 635
758 758 762 761 757 755 752 745 742 745 745 741 739 739 739 738 738 739 740 740 739 738 738 739 738 735 736 738 738 737 737 736 735 735 735 734 734 732 730 729 727 726 726 724 722 721 720 719 717 715 711 707 704 703 703 703 702 699 694 691 692 690 686 683 680 676 672 669 665 662 660 656 652 649 647 645 642 640 639 637 635 633 631 630 630 631
757 758 760 758 755 755 750 741 740 742 740 737 737 736 734 736 737 736 737 737 735 735 735 735 735 734 735 736 736 736 735 734 735 735 734 734 733 730 729 727 725 724 723 721 719 718 717 715 713 710 708 703 699 697 698 697 695 694 691 690 689 687 684 681 677 673 669 666 662 659 656 653 649 645 643 641 638 636 634 632 632 630 628 627 626 627
756 757 758 756 753 752 745 737 736 739 737 736 738 736 733 734 734 733 734 734 733 733 733 733 734 734 734 734 736 736 736 735 735 735 735 734 732 729 727 726 723 722 719 716 715 716 715 713 710 707 704 700 695 693 693 691 689 689 688 687 686 684 682 677 674 671 666 661 659 657 654 651 647 643 639 637 634 632 630 628 627 626 623 622 622 622
753 755 755 754 752 747 742 737 737 738 737 734 734 733 732 732 732 731 732 731 732 733 733 734 735 735 735 736 737 737 737 736 735 736 737 734 730 728 725 723 721 719 716 713 713 712 711 709 706 703 701 696 692 691 689 686 684 684 684 684 682 681 679 674 670 667 661 656 654 652 650 648 644 640 636 633 629 627 625 623 622 621 618 617 617 616
751 751 750 754 755 749 741 736 736 737 736 731 728 728 729 730 731 731 730 731 733 735 735 735 735 736 736 737 738 739 738 736 735 736 735 732 729 726 723 721 719 716 713 711 710 709 707 705 702 700 696 692 689 688 686 682 679 678 679 680 679 678 676 671 666 661 656 651 649 646 643 641 637 634 632 628 625 623 620 617 617 616 614 613 613 612
744 743 742 747 748 741 733 729 730 733 733 728 725 726 729 731 732 731 732 734 735 737 738 738 737 736 736 737 738 739 738 736 734 734 733 730 726 722 720 719 717 714 710 708 707 705 702 700 698 696 692 688 686 685 682 678 675 673 674 676 676 674 671 667 663 657 650 647 645 642 639 636 631 628 626 624 622 620 616 613 611 610 610 609 609 608